Current weather by "City, St" or "zip code"  
 

Current Conditions: Hollywood, North Perry Airport, FL

Fog/Mist


82.0 F

Last Updated on Oct 31 2020, 1:53 pm EDT
Humidity: 85%
Wind Speed: E 4.6 mph
Barometer 30.07 in
Dewpoint: 77.0 F
Visibility: 10.00 mi
Precip: Trace
Heat Index: 90 F
Wind Chill: NA
Current conditions at:

Hollywood, North Perry Airport, FL (KHWO)

Lat: 25.99889 Lon: 80.24111

Local Radar Image active severe weather and emergency alerts image image weather storm and storm spotter reports image weather observation monitoring service image
Local
Radar
Active
Alerts
Storm Reports Obs
Monitoring

Sign-up For Email & Text Message Weather Alert Notification Services



Advertise Here

Observation History for Hollywood, North Perry Airport, FL


Time Wind
(mph)
Vis
(mi)
Weather Precip (in) Temperature (F) Relative
Humidity
Wind
Chill
(F)
Heat
Index
(F)
Pressure
Air Dwpt altimeter
(in)
sea level
(mb)
Rmks
1:53 pm EDT E 4.6 10.00 Fog/Mist Trace 82.0 77.0 85% NA 90 30.07 1018.3
12:53 pm EDT E 6.9 10.00 Light Rain Trace 82.0 77.0 85% NA 90 30.10 1019.2
11:53 am EDT E 13.8 10.00 Mostly Cloudy -- 85.0 77.0 77% NA 96 30.10 1019.1
10:53 am EDT N 0.0 10.00 Partly Cloudy -- 82.0 78.1 88% NA 91 30.10 1019.3
9:53 am EDT NE 4.6 10.00 Overcast Trace 78.0 78.1 100% NA NA 30.09 1019.0
8:53 am EDT N 4.6 10.00 Light Rain Trace 77.0 77.0 100% NA NA 30.08 1018.6
7:53 am EDT S 3.5 10.00 Thunderstorm in Vicinity 00.01 77.0 77.0 100% NA NA 30.05 1017.6
6:53 am EDT NW 5.8 10.00 Thunderstorm in Vicinity Trace 76.0 75.9 100% NA NA 30.04 1017.0
5:53 am EDT E 8.1 10.00 Mostly Cloudy -- 77.0 77.0 100% NA NA 30.02 1016.6
4:53 am EDT N 0.0 10.00 Overcast Trace 77.0 77.0 100% NA NA 30.01 1016.1
3:53 am EDT NE 3.5 10.00 Thunderstorm Light Rain 00.02 76.0 75.9 100% NA NA 30.00 1015.9
2:53 am EDT NE 10.4 5.00 Thunderstorm Rain Fog/Mist 00.17 75.0 75.0 100% NA NA 30.01 1016.0
1:53 am EDT E 11.5 7.00 Thunderstorm Heavy Rain 00.13 75.0 73.9 96% NA NA 30.02 1016.6
12:53 am EDT N 4.6 10.00 Light Rain Trace 77.0 75.9 96% NA NA 30.02 1016.5
11:53 pm EDT NE 3.5 8.00 Thunderstorm Rain 00.58 77.0 77.0 100% NA NA 30.03 1016.7
10:53 pm EDT E 3.5 10.00 Light Rain Trace 80.0 78.1 94% NA 86 30.03 1016.7
9:53 pm EDT N 6.9 10.00 Overcast Trace 79.0 78.1 97% NA NA 30.02 1016.4
8:53 pm EDT E 6.9 10.00 Mostly Cloudy 00.01 78.0 78.1 100% NA NA 30.00 1015.9
7:53 pm EDT NE 5.8 10.00 Thunderstorm in Vicinity -- 80.0 78.1 94% NA 86 30.00 1015.7
6:53 pm EDT SE 5.8 10.00 A Few Clouds -- 83.0 79.0 88% NA 94 29.96 1014.4
5:53 pm EDT SE 5.8 10.00 Mostly Cloudy -- 86.0 77.0 75% NA 97 29.94 1013.8
4:53 pm EDT N 0.0 10.00 Mostly Cloudy -- 86.0 75.9 72% NA 96 29.94 1013.8
3:53 pm EDT SE 8.1 10.00 A Few Clouds -- 83.0 77.0 82% NA 92 29.93 1013.5
2:53 pm EDT E 6.9 10.00 Overcast 00.03 85.0 80.1 85% NA 99 29.93 1013.4

Regional Weather Observation


Fort Lauderdale/Hollywood International Airport, FL (KFLL)

Mostly Cloudy
82.0 F

Fort Lauderdale, Fort Lauderdale Executive Airport, FL (KFXE)

Thunderstorm Rain
80.0 F

Pompano Beach, Pompano Beach Airpark, FL (KPMP)

Mostly Cloudy
82.0 F

West Palm Beach - Palm Beach International Airport, FL (KPBI)

Mostly Cloudy
85.0 F

Miami, Opa Locka Airport, FL (KOPF)

Fair
82.0 F

Miami, Miami International Airport, FL (KMIA)

Mostly Cloudy
85.0 F